User: anonymous   Login
Location: Fort Wayne
(41.1310°N, 85.1290°W)
Time: 12:32:01
(UTC-05:00)
Language:

Cosmos 2219 Rocket - Orbit

View from above orbital plane
View from above orbital plane
View from above satellite
View from above satellite

Ground track
Ground track

The orbit data is extracted from the following two-line orbital elements,

1 22220U 92076B   15064.98821954  .00000240  00000-0  14478-3 0  9997
2 22220 071.0019 015.1061 0010723 107.4985 329.4930 14.16353472152654
Epoch (UTC): 05 March 2015 23:43:02
Eccentricity: 0.0010723
inclination: 71.0019°
perigee height: 830 km
apogee height: 845 km
right ascension of ascending node: 15.1061°
argument of perigee: 107.4985°
revolutions per day: 14.16353472
mean anomaly at epoch: 329.4930°
orbit number at epoch: 15265

The dashed part of the orbit path shows where the satellite is in the earth's shadow,  

DLR